www.pogodaiklimat.ru

Погода и климат >> Архив погоды >> Россия >> Ненецкий АО >> Хорей-Вер


ПОГОДА в Хорей-Вере

  • Прогноз погоды в Хорей-Вере
  • Монитор погоды в Хорей-Вере

АРХИВ ПОГОДЫ в Хорей-Вере

Время (UTC), дата Ветер
(напр.,м/с)
 
Видим.   Явления Облачность Т
(С)
Тd
(С)
f
(%)
Тe
(С)
Тes
(С)
Комфортность P
(гПа)
Po
(гПа)
Тmin
(С)
Tmax
(С)
R
(мм)
R24
(мм)
S
(см)
06 17.02 Ю 5 20 км в посл. час ливневой снег {туман} 10/10 300 м
[Cb cap]
-9.7 -11.1 89 -18 -18 988.2 979.1 -10.2
09 17.02 Ю 5 20 км в посл. час ливневой снег 10/10 300 м
[Sc]
-9.4 -11.3 86 -17 -17 987.6 978.5
12 17.02 ЮВ 2 20 км {ливн. осадки} 10/10 300 м
[Sc]
-9.2 -10.9 87 -14 -14 987.2 978.1
15 17.02 ЮВ 3 20 км 10/10 600 м
[Sc]
-9.4 -11.3 86 -15 -15 987.0 977.9 -8.6 0.0
18 17.02 ЮВ 4 20 км 10/10 600 м
[Sc]
-9.4 -11.9 82 -16 -16 986.5 977.5
21 17.02 В 3 20 км 10/0
[Cs]
-10.4 -12.5 85 -16 -16 986.8 977.7
00 18.02 В 3 4000 м слаб. снег 10/0
[As op]
-10.2 -11.7 89 -16 -16 987.7 978.6
03 18.02 С 3 4000 м слаб. снег 10/0
[As op]
-10.5 -12.2 87 -16 -16 988.9 979.8 -10.8 0.7 29
06 18.02 С 8-12
{12}
10 км слаб. снег {метель} 10/0
[As op]
-13.7 -16.3 81 -24 -24 992.6 983.3 -13.7
09 18.02 С 6
{12}
4000 м слаб. снег {метель} 10/0
[As op]
-15.0 -17.6 80 -25 -24 996.4 987.1
12 18.02 С 4
{11}
20 км {снег, метель} 3/0
[Ci fib]
-20.4 -22.9 80 -29 -29 1000.5 990.9
15 18.02 ЮЗ 2 20 км 3/0
[Ci fib]
-26.2 -29.0 77 -33 -33 опасность
обморожения
1004.1 994.2 -10.5 0.0
18 18.02 ЮЗ 3 20 км 9/0
[Ac trans]
-22.6 -25.0 81 -31 -31 опасность
обморожения
1004.8 995.1
21 18.02 З 5 20 км 9/8 300 м
[Sc As op]
-18.7 -21.0 82 -28 -28 1004.4 994.8
00 19.02 З 4 н/о н/о -21.6 -24.0 81 -31 -31 опасность
обморожения
1004.1 994.5
03 19.02 ЮЗ 3 2000 м дымка 6/0
[As op]
-21.9 -24.3 81 -30 -30 1003.1 993.5 -27.1 28
06 19.02 ЮЗ 7
{11}
500 м переохл. туман 8/5 300 м
[St Ac trans]
-19.1 -21.4 82 -31 -31 опасность
обморожения
1001.6 992.0
09 19.02 ЮЗ 5
{12}
20 км позёмок {туман} 9/0
[Ci fib]
-19.4 -22.1 79 -29 -29 1000.6 991.1
12 19.02 ЮЗ 8-13
{13}
4000 м метель {туман} 10/0
[Ac As]
-17.5 -19.8 82 -29 -29 999.3 989.9
15 19.02 ЮЗ 8
{13}
20 км позёмок 10/0
[As trans]
-15.9 -18.3 82 -27 -27 997.9 988.5 -15.9
18 19.02 ЮЗ 9-14
{15}
4000 м слаб. снег {дождь} н/о -14.6 -16.9 83 -26 -26 996.8 987.5
21 19.02 ЮЗ 8-12
{15}
1000 м снег {метель} 10/0
[As trans]
-14.8 -16.9 84 -26 -26 996.8 987.5
00 20.02 ЮЗ 7
{13}
20 км позёмок {снег} 10/0
[Ac As]
-14.0 -16.3 83 -24 -24 997.2 987.9
03 20.02 ЮЗ 5
{11}
20 км {метель} 10/0
[Ac As]
-13.5 -15.8 83 -22 -22 998.1 988.8 -15.9 0.5 29
06 20.02 ЮЗ 6 10 км слаб. снег {метель} 10/0
[Ac As]
-13.8 -16.1 83 -23 -23 999.3 990.0
09 20.02 ЮЗ 4 20 км {снег, метель} 9/0
[Ac As Ci sp]
-13.7 -16.5 79 -21 -21 1000.7 991.3
12 20.02 ЮЗ 4 20 км {снег, метель} 9/0
[Ac trans Ci sp]
-15.0 -17.6 80 -23 -23 1001.2 991.8
15 20.02 ЮВ 2 10 км слаб. снег 10/0
[Ac As]
-16.1 -18.3 83 -21 -21 1001.3 991.9 -13.4 0.2
18 20.02 ЮВ 4 4000 м слаб. снег 10/0
[As trans]
-16.0 -18.2 83 -24 -24 1000.8 991.4
21 20.02 В 4 4000 м слаб. снег 10/0
[As trans]
-14.8 -16.9 84 -23 -23 999.5 990.1
00 21.02 В 6 10 км слаб. снег {метель} 10/0
[As trans]
-14.4 -16.5 84 -24 -24 998.1 988.8
03 21.02 В 5 4000 м слаб. снег {метель} 10/0
[As op]
-15.0 -17.2 83 -24 -24 997.3 988.0 -16.6 0.7 30
06 21.02 В 7-12
{12}
1000 м сильн. снег {метель} 10/0
[As op]
-14.7 -16.9 83 -25 -25 997.5 988.2
09 21.02 В 7-12
{13}
500 м сильн. снег {метель} 10/0
[As op]
-14.8 -16.9 84 -25 -25 998.4 989.1
12 21.02 СВ 6
{12}
1000 м сильн. снег {метель} 10/0
[As op]
-15.3 -17.5 83 -25 -25 1000.7 991.3
15 21.02 СВ 6
{11}
4000 м слаб. снег {метель} 10/0
[As op]
-17.4 -20.0 80 -28 -28 1004.4 994.9 -14.3 0.6
18 21.02 СВ 3
{11}
20 км {снег, метель} 6/0
[Ac As]
-18.1 -20.9 79 -25 -25 1007.7 998.1
21 21.02 С 3 20 км 6/0
[Ci fib]
-19.8 -22.3 80 -27 -27 1010.6 1000.9
00 22.02 СЗ 1 20 км 6/0
[Ci fib]
-22.5 -25.0 80 -26 -26 1013.6 1003.8
03 22.02 С 1 20 км 3/0
[Ci fib]
-24.3 -27.5 75 -28 -28 1016.9 1007.0 -24.6 0.0 28
06 22.02 С 2 20 км ясно -23.6 -26.1 80 -30 -29 1019.6 1009.7 -24.8
09 22.02 З 1 20 км 1/0
[Ac trans]
-24.7 -27.7 76 -28 -27 1022.3 1012.3
12 22.02 С 1 20 км 1/0
[Ac trans]
-25.6 -28.5 77 -29 -29 1024.1 1014.1
15 22.02 штиль 0 20 км ясно -29.6 -32.3 77 -30 -30 1024.7 1014.5 -21.8
18 22.02 штиль 0 20 км ясно -33.3 -36.5 73 -33 -33 опасность
обморожения
1024.4 1014.1
21 22.02 штиль 0 4000 м дымка ясно -30.6 -33.6 75 -31 -31 опасность
обморожения
1022.3 1012.1
00 23.02 ЮЗ 5 4000 м мгла 8/0
[Ci fib]
-22.3 -24.9 79 -33 -33 опасность
обморожения
1018.4 1008.6
03 23.02 ЮЗ 8-13
{13}
20 км позёмок 9/0
[Ac As]
-21.2 -23.7 80 -34 -34 опасность
обморожения
1014.1 1004.4 -33.4 28
06 23.02 Ю 8-13
{14}
20 км позёмок 10/5 600 м
[Sc Ac As]
-16.8 -19.3 81 -28 -28 1009.5 1000.0
09 23.02 ЮЗ 9-14
{16}
4000 м метель 10/0
[As op]
-13.7 -16.1 82 -25 -25 1005.7 996.3
12 23.02 ЮЗ 8-12
{14}
4000 м слаб. снег {метель} 10/0
[As op]
-13.6 -15.9 83 -24 -24 1003.7 994.4
15 23.02 ЮЗ 8-12
{13}
4000 м слаб. снег {метель} 10/0
[As op]
-13.2 -15.3 84 -24 -24 1001.0 991.7 -12.8 0.6
18 23.02 З 10-13
{15}
2000 м метель {снег} 10/10 300 м
[Sc]
-10.3 -12.0 87 -21 -21 998.9 989.7
21 23.02 З 11-13
{14}
500 м снег {метель} 10/0 300 м
[As op]
-8.6 -10.0 90 -19 -19 996.5 987.4
00 24.02 З 10-12
{15}
1000 м снег {метель} 10/0 300 м
[As op]
-7.3 -8.5 91 -18 -18 994.7 985.7

 

Местоположение метеостанции Хорей-Вер (Ненецкий АО, Россия): широта 67.43 долгота 58.02 высота над уровнем моря 72 м.

В архиве по умолчанию представлена погода в Хорей-Вере за последнюю неделю. Архивные данные за месяц целиком и за предыдущие месяцы, начиная с января 2011 года, Вы можете получить, выбрав интересующий диапазон дат из раскрывающегося списка и нажав кнопку "Ввод!".


*Определитесь, кто Вы:
робот инопланетянин человек

Внимание! Время в таблицах - всемирное. Для получения местного времени необходимо прибавить поправку, которая равна 3 ч.

Смотрите также архив погоды в соседних городах и на ближайших метеорологических станциях:

Погода в Варандее (Ненецкий АО, Россия) (155 км)
Погода в Усинске (Коми, Россия) (158 км)
Погода на Мысе Константиновском (Ненецкий АО, Россия) (163 км)
Погода в Петруни (Коми, Россия) (163 км)
Погода в Усть-Усе (Коми, Россия) (169 км)
Погода в Мутном Материке (Коми, Россия) (207 км)
Погода в Нарьян-Маре (Ненецкий АО, Россия) (214 км)
Погода в Ходоварихе (Ненецкий АО, Россия) (243 км)
Погода в Воркуте (Коми, Россия) (254 км)
Погода на Мысе Белый Нос (Ненецкий АО, Россия) (257 км)

Пояснения к столбцам:

Ветер - указаны скорость ветра в м/с - средняя за 10 мин, порывы в срок и между сроками (в фигурных скобках) и направление, откуда дует ветер: С - северный, СВ - северо-восточный, В - восточный, ЮВ - юго-восточный, Ю - южный, ЮЗ - юго-западный, З - западный, СЗ - северо-западный.
Видимость - горизонтальная дальность видимости в метрах или километрах. При видимости от 1 до 10 км при отсутствии осадков обычно наблюдается дымка, при ухудшении видимости до 1 км и менее - туман. В сухую погоду видимость может ухудшаться дымом, пылью или мглою.
Явления - указаны атмосферные явления, наблюдавшиеся в срок или в последний час перед сроком; фигурными скобками обозначены явления, наблюдавшиеся между сроками (за 1-3 часа до срока); квадратными скобками обозначены град или гололедные отложения с указанием их диаметра в мм.
Облачность - указаны через наклонную черту общая и нижняя облачность в баллах и высота нижней границы облаков в метрах; квадратными скобками обозначены формы облаков: Ci - перистые, Cs - перисто-слоистые, Cc - перисто-кучевые, Ac - высококучевые, As - высокослоистые, Sc - слоисто-кучевые, Ns - слоисто-дождевые, Cu - кучевые, Cb - кучево-дождевые. Подробнее классификацию облаков см. в Атласе облаков (PDF).
T - Температура воздуха - температура, измеренная на высоте 2 м над землей.
Td - Температура точки росы - температура, при понижении до которой содержащийся в воздухе водяной пар достигнет насыщения.
f - Относительная влажность воздуха - влажноcть воздуха, измеренная на высоте 2 м над землей.
Te - Эффективная температура - температура, которую ощущает одетый по сезону человек в тени. Характеристика душности погоды. При расчете учитывается влияние влажности воздуха и скорости ветра на теплоощущения человека.
Tes - Эффективная температура на солнце - температура, которую ощущает человек, с поправкой на солнечный нагрев. Характеристика знойности погоды. Зависит от высоты солнца над горизонтом, облачности и скорости ветра. Ночью, в пасмурную погоду, а также при ветре 12 м/с и более поправка равна нулю.
P - Атмосферное давление - приведенное к уровню моря атмосферное давление.
Po - Атмосферное давление - измеренное на уровне метеостанции атмосферное давление.
Tmin - Минимальная температура - минимум температуры воздуха на высоте 2 м над землей.
Tmax - Максимальная температура - максимум температуры воздуха на высоте 2 м над землей.
R - Количество осадков - Количество выпавших осадков за период времени, мм. При наведении курсора мыши на число - период времени, за который выпало указанное количество осадков.
R24 - Количество осадков - Количество выпавших осадков за 24 часа, мм.
S - Снежный покров - Высота снежного покрова, см. При наведении курсора мыши на число - состояние снежного покрова и степень покрытия местности в баллах.